Weather History for Smyrna, TN

Change the Weather History Date:

Tuesday, August 27, 2013

  Actual Average Record
Temperature  
Mean Temperature 76 °F -  
Max Temperature 90 °F 85 °F 104 °F (2007)
Min Temperature 62 °F 67 °F 61 °F (2010)
Cooling Degree Days 11    
Growing Degree Days 26 (Base 50)    
Moisture  
Dew Point 67 °F    
Average Humidity 76    
Maximum Humidity 100    
Minimum Humidity 45    
Precipitation  
Precipitation 0.00 in - - ()
Sea Level Pressure  
Sea Level Pressure 30.15 in    
Wind  
Wind Speed 2 mph (NW)    
Max Wind Speed 8 mph    
Max Gust Speed -    
Visibility 9 miles    
Events      
Averages and records for this station are not official NWS values.
T = Trace of Precipitation, MM = Missing Value Source: NWS Daily Summary

Daily Weather History Graph

Daily Weather History Graph

Search for Another Location

Airport:

Trip Planner

Search our weather history database for the weather conditions in past years. The results will help you decide how hot, cold, wet, or windy it might be!

Date:

Astronomy

Aug. 27, 2013 Rise Set
Actual Time 6:14 AM CDT 7:20 PM CDT
Civil Twilight 5:47 AM CDT 7:46 PM CDT
Nautical Twilight 5:16 AM CDT 8:17 PM CDT
Astronomical Twilight 4:43 AM CDT 8:50 PM CDT
Moon 11:27 PM CDT (8/27) 12:57 PM CDT (8/27)
Length of Visible Light 13h 58m
Length of Day
13h 06m
Waning Gibbous, 57% of the Moon is Illuminated
Aug 27
Waning Gibbous
Aug 28
Last Quarter
Sep 5
New
Sep 12
First Quarter
Sep 19
Full

Hourly Weather History & Observations

Time (CDT) Temp. Heat Index Dew Point Humidity Pressure Visibility Wind Dir Wind Speed Gust Speed Precip Events Conditions
12:56 AM 68.0 °F - 65.8 °F 93% 30.19 in 10.0 mi Calm Calm - N/A   Clear
1:56 AM 66.9 °F - 66.9 °F 100% 30.19 in 10.0 mi Calm Calm - N/A   Clear
2:56 AM 64.9 °F - 64.9 °F 100% 30.18 in 5.0 mi Calm Calm - N/A   Clear
3:56 AM 64.9 °F - 64.9 °F 100% 30.18 in 7.0 mi Calm Calm - N/A   Clear
4:56 AM 64.9 °F - 64.9 °F 100% 30.18 in 8.0 mi Calm Calm - N/A   Clear
5:56 AM 63.9 °F - 63.9 °F 100% 30.18 in 4.0 mi Calm Calm - N/A   Clear
6:05 AM 64.4 °F - 64.4 °F 100% 30.16 in 2.0 mi Calm Calm - N/A   Clear
6:27 AM 62.6 °F - 62.6 °F 100% 30.17 in 9.0 mi Calm Calm - N/A   Clear
6:56 AM 64.9 °F - 64.9 °F 100% 30.18 in 9.0 mi Calm Calm - N/A   Clear
7:56 AM 70.0 °F - 66.9 °F 90% 30.19 in 10.0 mi SSE 3.5 mph - N/A   Clear
8:56 AM 74.8 °F - 66.9 °F 76% 30.20 in 10.0 mi Calm Calm - N/A   Clear
9:56 AM 81.9 °F 83.5 °F 64.9 °F 56% 30.19 in 10.0 mi WNW 5.8 mph - N/A   Clear
10:56 AM 84.9 °F 86.6 °F 64.9 °F 51% 30.19 in 10.0 mi NW 5.8 mph - N/A   Clear
11:56 AM 86.9 °F 88.6 °F 64.9 °F 48% 30.17 in 10.0 mi WNW 6.9 mph - N/A   Partly Cloudy
12:56 PM 86.9 °F 89.6 °F 66.9 °F 51% 30.15 in 10.0 mi NNE 5.8 mph - N/A   Partly Cloudy
1:56 PM 90.0 °F 93.6 °F 68.0 °F 48% 30.12 in 10.0 mi North 8.1 mph - N/A   Scattered Clouds
2:56 PM 88.0 °F 90.7 °F 66.9 °F 49% 30.10 in 10.0 mi North 8.1 mph - N/A   Clear
3:56 PM 90.0 °F 92.4 °F 65.8 °F 45% 30.10 in 10.0 mi Variable 4.6 mph - N/A   Scattered Clouds
4:56 PM 88.9 °F 91.8 °F 66.9 °F 48% 30.09 in 10.0 mi Variable 5.8 mph - N/A   Partly Cloudy
5:56 PM 86.9 °F 91.0 °F 68.9 °F 55% 30.09 in 10.0 mi WSW 4.6 mph - N/A   Partly Cloudy
6:56 PM 83.8 °F 87.5 °F 68.9 °F 61% 30.08 in 10.0 mi SW 3.5 mph - N/A   Partly Cloudy
7:56 PM 79.9 °F - 68.9 °F 69% 30.09 in 10.0 mi Calm Calm - N/A   Clear
8:56 PM 79.0 °F - 70.0 °F 74% 30.10 in 10.0 mi Calm Calm - N/A   Partly Cloudy
9:56 PM 73.9 °F - 70.0 °F 87% 30.11 in 10.0 mi Calm Calm - N/A   Clear
10:56 PM 72.9 °F - 70.0 °F 91% 30.10 in 10.0 mi Calm Calm - N/A   Clear
11:56 PM 70.9 °F - 68.9 °F 93% 30.10 in 10.0 mi Calm Calm - N/A   Clear